Time,TemperatureF,DewpointF,PressureIn,WindDirection,WindDirectionDegrees,WindSpeedMPH,WindSpeedGustMPH,Humidity,HourlyPrecipIn,Conditions,Clouds,dailyrainin,SoftwareType,DateUTC
2013-02-07 00:12:00,45.8,31.0,30.20,NW,309,0.0,-999.0,56,-99.99,,,0.00,weatherlink.com 1.10,2013-02-07 08:12:00,
2013-02-07 00:27:00,45.1,33.0,30.19,NW,310,0.0,-999.0,64,-99.99,,,0.00,weatherlink.com 1.10,2013-02-07 08:27:00,
2013-02-07 00:42:00,43.7,32.0,30.19,North,350,0.0,-999.0,64,-99.99,,,0.00,weatherlink.com 1.10,2013-02-07 08:42:00,
2013-02-07 00:57:00,44.0,34.0,30.19,North,351,0.0,-999.0,69,-99.99,,,0.00,weatherlink.com 1.10,2013-02-07 08:57:00,
2013-02-07 01:12:00,43.9,34.0,30.18,North,351,0.0,-999.0,69,-99.99,,,0.00,weatherlink.com 1.10,2013-02-07 09:12:00,
2013-02-07 01:27:00,44.4,32.0,30.18,North,350,0.0,-999.0,63,-99.99,,,0.00,weatherlink.com 1.10,2013-02-07 09:27:00,
2013-02-07 01:42:00,44.4,34.0,30.18,North,350,0.0,-999.0,67,-99.99,,,0.00,weatherlink.com 1.10,2013-02-07 09:42:00,
2013-02-07 01:57:00,44.3,33.0,30.18,North,351,0.0,-999.0,65,-99.99,,,0.00,weatherlink.com 1.10,2013-02-07 09:57:00,
2013-02-07 02:12:00,44.2,34.0,30.18,North,351,0.0,-999.0,68,-99.99,,,0.00,weatherlink.com 1.10,2013-02-07 10:12:00,
2013-02-07 02:27:00,44.1,34.0,30.18,North,351,0.0,-999.0,69,-99.99,,,0.00,weatherlink.com 1.10,2013-02-07 10:27:00,
2013-02-07 02:42:00,44.2,35.0,30.18,North,351,0.0,-999.0,69,-99.99,,,0.00,weatherlink.com 1.10,2013-02-07 10:42:00,
2013-02-07 02:57:00,44.2,35.0,30.18,North,350,0.0,-999.0,69,-99.99,,,0.00,weatherlink.com 1.10,2013-02-07 10:57:00,
2013-02-07 03:12:00,43.2,34.0,30.18,North,351,0.0,-999.0,70,-99.99,,,0.00,weatherlink.com 1.10,2013-02-07 11:12:00,
2013-02-07 03:27:00,42.2,34.0,30.18,North,351,0.0,-999.0,73,-99.99,,,0.00,weatherlink.com 1.10,2013-02-07 11:27:00,
2013-02-07 03:42:00,41.6,35.0,30.17,North,351,0.0,-999.0,77,-99.99,,,0.00,weatherlink.com 1.10,2013-02-07 11:42:00,
2013-02-07 03:57:00,41.5,35.0,30.17,North,350,0.0,-999.0,77,-99.99,,,0.00,weatherlink.com 1.10,2013-02-07 11:57:00,
2013-02-07 04:12:00,41.8,34.0,30.17,North,350,0.0,-999.0,75,-99.99,,,0.00,weatherlink.com 1.10,2013-02-07 12:12:00,
2013-02-07 04:27:00,42.0,34.0,30.18,North,351,0.0,-999.0,74,-99.99,,,0.00,weatherlink.com 1.10,2013-02-07 12:27:00,
2013-02-07 04:42:00,42.3,34.0,30.18,North,351,0.0,-999.0,73,-99.99,,,0.00,weatherlink.com 1.10,2013-02-07 12:42:00,
2013-02-07 04:57:00,42.7,34.0,30.17,North,351,0.0,-999.0,72,-99.99,,,0.00,weatherlink.com 1.10,2013-02-07 12:57:00,